CST,Max TemperatureF,Mean TemperatureF,Min TemperatureF,Max Dew PointF,MeanDew PointF,Min DewpointF,Max Humidity, Mean Humidity, Min Humidity, Max Sea Level PressureIn, Mean Sea Level PressureIn, Min Sea Level PressureIn, Max VisibilityMiles, Mean VisibilityMiles, Min VisibilityMiles, Max Wind SpeedMPH, Mean Wind SpeedMPH, Max Gust SpeedMPH,PrecipitationIn, CloudCover, Events, WindDirDegrees
2012-12-1,66,57,48,50,46,42,79,63,51,30.21,30.14,30.08,10,10,10,13,5,22,0.00,6,,169
2012-12-2,66,64,62,60,57,49,90,75,59,30.13,30.09,30.07,10,10,10,16,10,23,0.00,8,,197
2012-12-3,71,66,61,59,57,51,84,72,56,30.13,30.08,30.03,10,10,10,18,9,25,0.00,4,,182
2012-12-4,67,55,43,65,54,43,100,84,67,30.28,30.12,30.03,10,10,3,18,9,22,0.16,6,Thunderstorm,270
2012-12-5,61,48,34,45,37,32,100,70,34,30.34,30.27,30.19,10,10,3,9,3,,0.00,0,,40
2012-12-6,56,50,43,54,48,37,100,87,69,30.09,30.00,29.95,10,8,3,6,1,,0.00,8,,131
2012-12-7,61,56,52,61,56,53,100,97,82,29.94,29.88,29.83,10,6,0,9,2,,0.24,8,,202
2012-12-8,58,54,50,59,53,48,100,95,80,29.96,29.91,29.85,10,6,3,12,4,,0.00,8,Thunderstorm,15
2012-12-9,65,58,49,64,57,49,100,99,91,29.92,29.82,29.73,10,7,2,13,5,24,0.60,8,Thunderstorm,176
2012-12-10,47,39,31,46,30,22,96,79,67,30.08,29.92,29.81,10,10,7,17,10,25,0.00,8,,327
2012-12-11,40,32,24,26,23,21,100,72,47,30.27,30.17,30.08,10,10,7,8,2,,0.00,2,,253
2012-12-12,48,34,21,36,26,22,100,81,38,30.38,30.33,30.27,10,8,0,5,0,,0.00,1,,135
2012-12-13,53,37,21,33,25,21,100,73,29,30.40,30.33,30.26,10,9,3,7,1,,0.00,0,,155
2012-12-14,56,40,25,36,29,24,95,63,33,30.31,30.21,30.07,10,10,10,10,2,,0.00,1,,170
2012-12-15,61,54,48,60,50,36,100,88,59,30.05,29.86,29.76,10,9,3,17,8,24,0.12,8,,173
2012-12-16,61,58,55,60,55,48,100,90,63,29.78,29.73,29.66,10,10,7,12,6,17,0.00,4,,212
2012-12-17,58,50,42,57,49,38,100,92,70,29.83,29.69,29.60,10,8,1,14,5,20,0.00,7,,265
2012-12-18,57,44,32,40,38,32,100,75,47,29.90,29.85,29.78,10,9,2,17,4,23,0.00,1,,206
2012-12-19,62,48,33,50,43,33,100,77,50,29.99,29.88,29.65,10,9,5,16,4,24,0.00,3,,113
2012-12-20,62,47,32,59,36,21,100,68,49,29.96,29.64,29.39,10,10,5,32,18,43,0.35,7,Thunderstorm,235
2012-12-21,42,36,28,21,16,12,63,47,29,30.29,30.17,29.97,10,10,10,20,12,29,0.00,0,,288
2012-12-22,47,34,20,27,18,14,89,54,31,30.33,30.22,30.04,10,10,10,7,3,,0.00,0,,186
2012-12-23,59,48,36,50,39,27,100,68,53,30.03,29.94,29.83,10,9,2,10,6,,0.00,3,,196
2012-12-24,50,41,32,49,39,27,100,86,55,30.09,29.91,29.77,10,5,0,13,4,22,0.00,6,,341
2012-12-25,36,33,30,32,28,26,90,78,70,30.16,30.01,29.68,10,8,5,22,9,34,0.03,8,,30
2012-12-26,34,32,31,33,29,26,100,88,76,30.15,29.88,29.62,10,7,2,22,16,34,0.32,8,,328
2012-12-27,34,32,29,28,26,24,87,78,66,30.22,30.15,30.09,10,10,10,7,3,,0.00,8,,41
2012-12-28,38,34,30,35,31,28,100,88,75,30.09,29.96,29.82,10,8,2,10,3,,0.33,7,,68
2012-12-29,33,26,19,33,28,18,100,92,76,30.38,30.13,29.85,10,7,2,15,7,21,0.01,6,,287
2012-12-30,38,25,12,29,23,13,100,83,61,30.52,30.42,30.32,10,7,2,8,2,,0.00,0,,191
2012-12-31,40,36,33,36,30,27,100,81,65,30.32,30.19,30.06,10,8,2,7,4,,0.30,6,,196